[[{"header":{"parameterUnit":"m.s-1","parameterCategory":1,"la1":30.2991,"la2":30.254,"lo1":-89.0895,"lo2":-89.0444,"dy":0.0017,"dx":0.0017,"nx":28,"ny":28,"refTime":"2025-04-22T09:00:00:Z","depth":0,"parameterNumber":2,"parameterNumberName":"U-component_of_WINDS"},"data":[0,0,0,0,0,0,0,0,0,0,0,0,0,0,0,0,0,0,0,0,0,0,0,0,0,0,0,0,0,0,0,0,0,0,0,0,0,0,0,0,0,0,0,0,0,0,0,0,0,0,0,0,0,0,0,0,0,0,-1.9701,-1.9703,0,-1.9841,-1.9842,-1.9844,-1.9869,-1.9867,-1.9866,-1.9865,-2.0015,-2.002,-2.0025,0,0,0,0,0,0,0,0,0,0,0,0,0,-1.9464,-1.9468,-1.9701,-1.9703,-1.9705,-1.984,-1.9842,-1.9844,-1.9869,-1.9867,-1.9866,-1.9864,-2.0013,-2.0019,-2.0025,0,0,0,0,0,0,0,0,0,0,0,0,0,-1.9582,-1.947,-1.9701,-1.9733,-1.9737,-1.984,-1.9842,-1.9845,-1.9869,-1.9867,-1.9865,-1.9864,-2.0011,-2.0018,-2.0026,-2.0109,0,0,-2.0049,-2.0053,0,0,0,0,0,0,0,0,-1.9575,-1.959,-1.9727,-1.9731,-1.9736,-1.9835,-1.9814,-1.9933,-1.9869,-1.9819,-1.9865,-1.9863,-1.9957,-1.9969,-1.9999,-2.0116,-2.0122,-2.005,-2.0055,-2.0058,-2.006,0,0,0,0,0,0,0,-1.9567,-1.9585,-1.9757,-1.9729,-1.9734,-1.9743,-1.9758,-1.9836,-1.9897,-1.9823,-1.9826,-1.9841,-1.9959,-1.9992,-2.0003,-2.0124,-2.005,-2.0057,-2.0061,-2.0064,-2.0318,-2.032,0,0,0,0,0,0,-1.9552,-1.9578,-1.9752,-1.9761,-1.9649,-1.9749,-1.9765,-1.9805,-1.9896,-1.9908,-1.9843,-1.9842,-1.998,-1.9994,-2.0008,-2.0112,-2.0058,-2.0065,-2.0069,-2.0315,-2.0318,-2.032,0,0,0,0,0,0,-1.9547,-1.9567,-1.9746,-1.967,-1.9693,-1.9755,-1.9799,-1.9809,-1.9841,-1.991,-1.9922,-1.9864,-1.9979,-1.9997,-2.0083,-2.0117,-2.0068,-2.0075,-2.0313,-2.0316,-2.0319,-2.0318,0,0,0,0,0,0,-1.954,-1.9565,-1.9595,-1.967,-1.9697,-1.9817,-1.9801,-1.9813,-1.9854,-1.9854,-1.9933,-1.9945,-1.9979,-2.0072,-2.0091,-2.0127,-2.0081,-2.031,-2.0314,-2.0318,-2.0316,-2.0321,-2.0326,0,0,0,0,0,-1.9531,-1.959,-1.9596,-1.9617,-1.9736,-1.9819,-1.9834,-1.987,-1.9856,-1.9888,-1.9933,-1.9943,-2.011,-2.008,-2.0102,-2.0141,-2.0308,-2.0313,-2.0318,-2.0313,-2.032,-2.0326,0,0,0,0,0,0,-1.952,-1.9601,-1.9608,-1.9693,-1.9749,-1.9823,-1.9864,-1.9876,-1.9938,-1.9936,-1.998,-1.9998,-2.0081,-2.012,-2.0085,-2.0227,-2.0209,-2.0218,-2.0198,-2.0205,-2.021,-2.0199,-2.0088,0,0,0,0,0,-1.9527,-1.9585,-1.9654,-1.9722,-1.9749,-1.9802,-1.9839,-1.9862,-1.9922,-1.9946,-1.9997,-2.0057,-2.0124,-2.0166,-2.0231,-2.0322,-2.034,-2.0359,-2.0364,-2.0368,-2.0376,-2.0428,-2.0438,-2.0336,-2.0336,-2.0336,0,0,-1.9543,-1.9594,-1.9629,-1.9721,-1.9767,-1.9829,-1.9821,-1.9887,-1.9934,-1.9957,-2.004,-2.008,-2.0151,-2.0239,-2.0281,-2.0274,-2.0408,-2.0374,-2.0377,-2.0383,-2.0434,-2.0444,-2.0452,-2.034,-2.0339,-2.0338,0,0,-1.9603,-1.9647,-1.9709,-1.9755,-1.9823,-1.9858,-1.9873,-1.9945,-1.9972,-2.0056,-2.0075,-2.0133,-2.0246,-2.0296,-2.0336,-2.0416,-2.0428,-2.0437,-2.0463,-2.0514,-2.0522,-2.0529,-2.0559,-2.0569,-2.0444,-2.0444,-2.0444,0,-1.9615,-1.9706,-1.974,-1.9805,-1.9846,-1.9868,-1.9933,-1.9976,-2.0064,-2.0093,-2.0083,-2.0226,-2.0275,-2.0376,-2.0396,-2.0427,-2.0448,-2.0427,-2.0517,-2.0525,-2.0532,-2.0561,-2.0572,-2.0445,-2.0445,-2.0445,-2.0445,0,-1.9717,-1.978,-1.9823,-1.9904,-1.995,-2.0015,-2.0062,-2.0105,-2.0124,-2.016,-2.0247,-2.0307,-2.0384,-2.041,-2.0431,-2.0515,-2.0509,-2.0508,-2.0491,-2.0542,-2.057,-2.0581,-2.0446,-2.0445,-2.0445,-2.0445,0,0,-1.9773,-1.9873,-1.9888,-1.9925,-2.0003,-2.0054,-2.0121,-2.0195,-2.0232,-2.0292,-2.035,-2.0446,-2.0446,-2.0491,-2.0518,-2.0562,-2.0623,-2.0556,-2.0558,-2.0567,-2.0722,-2.0722,-2.0734,-2.0632,-2.0634,-2.0636,-2.0716,0,-1.9843,-1.9959,-1.9993,-2.0093,-2.0153,-2.0175,-2.0234,-2.0289,-2.0326,-2.0384,-2.0426,-2.0493,-2.0487,-2.0515,-2.056,-2.0606,-2.0655,-2.0601,-2.0689,-2.0691,-2.067,-2.0748,-2.0749,-2.0822,-2.0727,-2.0729,-2.073,0,-1.994,-1.9999,-2.0103,-2.0174,-2.0201,-2.0252,-2.0324,-2.0378,-2.0443,-2.0467,-2.0518,-2.054,-2.0614,-2.0593,-2.0696,-2.0658,-2.0697,-2.0725,-2.0729,-2.0739,-2.0714,-2.0761,-2.0846,-2.0857,-2.0748,-2.0746,-2.0745,0,-1.9971,-2.0077,-2.0154,-2.0185,-2.027,-2.0306,-2.0343,-2.0406,-2.0448,-2.0512,-2.0541,-2.0613,-2.0652,-2.0709,-2.0751,-2.0732,-2.0851,-2.0834,-2.0875,-2.0874,-2.0899,-2.0897,-2.0991,-2.0923,-2.0923,-2.0923,-2.0922,0,-2.0045,-2.0108,-2.0169,-2.0216,-2.0288,-2.0328,-2.04,-2.0439,-2.0494,-2.0552,-2.0577,-2.0631,-2.0683,-2.0745,-2.0779,-2.086,-2.0878,-2.0901,-2.0909,-2.0899,-2.0896,-2.0924,-2.0921,-2.0926,-2.0925,-2.0924,-2.0924,0,-2.0092,-2.0135,-2.022,-2.0292,-2.0312,-2.0362,-2.0426,-2.0474,-2.0512,-2.0584,-2.0604,-2.0663,-2.0737,-2.0785,-2.088,-2.0903,-2.0992,-2.0999,-2.0969,-2.0973,-2.1012,-2.1008,-2.1129,-2.1147,-2.1066,-2.1066,-2.1067,0,-2.0137,-2.0185,-2.0263,-2.0302,-2.0338,-2.0401,-2.0444,-2.0486,-2.0531,-2.0609,-2.0648,-2.0723,-2.0785,-2.0903,-2.0957,-2.103,-2.1039,-2.1077,-2.1051,-2.1039,-2.1041,-2.1037,-2.1043,-2.1081,-2.1082,-2.1082,-2.1083,0,-2.0212,-2.023,-2.029,-2.0358,-2.0408,-2.0464,-2.0521,-2.0552,-2.0605,-2.0654,-2.0728,-2.0776,-2.0873,-2.0948,-2.1026,-2.1068,-2.1085,-2.109,-2.1104,-2.1094,-2.1075,-2.1086,-2.0981,-2.1087,-2.1087,-2.1086,-2.1086,-2.1086,-2.026,-2.0304,-2.0365,-2.0432,-2.0478,-2.0531,-2.0579,-2.0622,-2.0684,-2.0764,-2.0786,-2.0865,-2.0931,-2.1037,-2.108,-2.1144,-2.114,-2.1159,-2.1164,-2.1169,-2.1169,-2.1064,-2.1159,-2.1159,-2.1159,-2.1159,-2.1158,0,-2.0336,-2.0377,-2.0437,-2.0514,-2.0567,-2.0576,-2.0639,-2.0684,-2.0751,-2.081,-2.087,-2.0957,-2.103,-2.109,-2.1166,-2.1206,-2.1216,-2.1225,-2.1222,-2.1232,-2.1168,-2.1149,-2.1215,-2.1215,-2.1215,-2.1215,-2.1215,-2.1215,-2.0383,-2.0459,-2.0485,-2.0586,-2.0627,-2.0701,-2.0737,-2.0787,-2.0833,-2.0928,-2.0988,-2.1025,-2.1086,-2.1166,-2.1235,-2.1251,-2.1278,-2.1285,-2.1303,-2.1243,-2.1236,-2.123,-2.1212,-2.1291,-2.1291,-2.1362,-2.1362,-2.1363]},{"header":{"parameterUnit":"m.s-1","parameterCategory":1,"la1":30.2991,"la2":30.254,"lo1":-89.0895,"lo2":-89.0444,"dy":0.0017,"dx":0.0017,"nx":28,"ny":28,"refTime":"2025-04-22T09:00:00:Z","depth":0,"parameterNumber":3,"parameterNumberName":"V-component_of_WINDS"},"data":[0,0,0,0,0,0,0,0,0,0,0,0,0,0,0,0,0,0,0,0,0,0,0,0,0,0,0,0,0,0,0,0,0,0,0,0,0,0,0,0,0,0,0,0,0,0,0,0,0,0,0,0,0,0,0,0,0,0,3.125,3.1251,0,3.1323,3.1323,3.1324,3.1331,3.133,3.133,3.1329,3.1405,3.1407,3.141,0,0,0,0,0,0,0,0,0,0,0,0,0,3.1122,3.1124,3.125,3.1251,3.1252,3.1322,3.1323,3.1324,3.1331,3.133,3.1329,3.1328,3.1404,3.1407,3.141,0,0,0,0,0,0,0,0,0,0,0,0,0,3.1184,3.1125,3.125,3.1264,3.1266,3.1322,3.1323,3.1325,3.1331,3.133,3.1329,3.1328,3.1403,3.1407,3.1411,3.1459,0,0,3.1423,3.1425,0,0,0,0,0,0,0,0,3.1181,3.1189,3.1261,3.1263,3.1265,3.1317,3.1306,3.137,3.1332,3.1307,3.1329,3.1327,3.1376,3.1383,3.1399,3.1462,3.1466,3.1424,3.1426,3.1428,3.1429,0,0,0,0,0,0,0,3.1176,3.1186,3.1279,3.1262,3.1265,3.1268,3.1275,3.1318,3.1347,3.1309,3.1309,3.1318,3.1377,3.1395,3.1401,3.1467,3.1424,3.1427,3.143,3.1431,3.1577,3.1578,0,0,0,0,0,0,3.1169,3.1182,3.1277,3.1281,3.1219,3.1271,3.1279,3.1301,3.1347,3.1352,3.1319,3.1318,3.1388,3.1396,3.1403,3.1464,3.1428,3.1432,3.1434,3.1576,3.1577,3.1579,0,0,0,0,0,0,3.1166,3.1177,3.1274,3.1232,3.1244,3.1274,3.1299,3.1303,3.1321,3.1354,3.136,3.1331,3.1388,3.1398,3.1446,3.1467,3.1434,3.1437,3.1574,3.1576,3.1578,3.1585,0,0,0,0,0,0,3.1162,3.1176,3.1194,3.1232,3.1247,3.1313,3.13,3.1306,3.1327,3.1327,3.1367,3.1372,3.1388,3.1439,3.145,3.1472,3.144,3.1572,3.1575,3.1578,3.1583,3.1587,3.159,0,0,0,0,0,3.1158,3.1192,3.1194,3.1206,3.1269,3.1314,3.1323,3.1339,3.1329,3.1348,3.137,3.1371,3.1463,3.1444,3.1456,3.1479,3.1571,3.1574,3.1577,3.1581,3.1586,3.159,0,0,0,0,0,0,3.1155,3.1198,3.12,3.1248,3.1278,3.1315,3.1339,3.1343,3.1377,3.1375,3.1394,3.1403,3.1451,3.147,3.1449,3.153,3.1516,3.1522,3.1515,3.152,3.1524,3.1518,3.1444,0,0,0,0,0,3.116,3.1193,3.1229,3.1268,3.1282,3.1308,3.1329,3.1339,3.1371,3.1383,3.1409,3.144,3.1477,3.15,3.1535,3.1587,3.1596,3.1609,3.1613,3.1616,3.162,3.1651,3.1658,3.1589,3.1589,3.1589,0,0,3.1171,3.1198,3.1217,3.1268,3.1292,3.1327,3.1319,3.1355,3.1381,3.1389,3.1436,3.1456,3.1493,3.1544,3.1567,3.1561,3.1642,3.162,3.1622,3.1625,3.1655,3.1662,3.1667,3.1592,3.1591,3.1591,0,0,3.1207,3.1231,3.1267,3.1292,3.1329,3.1346,3.1355,3.1393,3.1407,3.1454,3.1462,3.1494,3.1556,3.1582,3.1604,3.1655,3.1658,3.1666,3.1685,3.1715,3.1721,3.1726,3.1745,3.1751,3.167,3.167,3.167,0,3.1216,3.1267,3.1285,3.1322,3.1345,3.1354,3.1391,3.1415,3.1462,3.1478,3.1471,3.155,3.1575,3.1633,3.1646,3.1663,3.1675,3.166,3.1718,3.1723,3.1728,3.1747,3.1754,3.1671,3.1671,3.1671,3.1671,0,3.1276,3.1313,3.1337,3.1382,3.1408,3.1445,3.147,3.1494,3.1504,3.1523,3.1573,3.1604,3.1647,3.1662,3.167,3.1722,3.1717,3.1714,3.17,3.1735,3.1753,3.176,3.1672,3.1672,3.1672,3.1672,0,0,3.131,3.1367,3.1376,3.1397,3.1441,3.1469,3.1508,3.155,3.1571,3.1604,3.1638,3.1692,3.169,3.1715,3.1728,3.1754,3.1795,3.1748,3.1749,3.1756,3.1855,3.1857,3.1864,3.1798,3.1799,3.18,3.1852,0,3.1352,3.142,3.1439,3.1497,3.1531,3.1543,3.1577,3.1608,3.1628,3.1662,3.1685,3.1722,3.1717,3.1732,3.1759,3.1784,3.1815,3.178,3.1831,3.1832,3.182,3.1874,3.1875,3.1922,3.1859,3.186,3.1861,0,3.1409,3.1443,3.1505,3.1546,3.1561,3.1591,3.1633,3.1664,3.1701,3.1714,3.1743,3.1754,3.1798,3.1783,3.1844,3.182,3.1843,3.1859,3.1861,3.1866,3.1848,3.188,3.1937,3.1944,3.1872,3.1871,3.1871,0,3.1428,3.149,3.1536,3.1554,3.1603,3.1624,3.1646,3.1682,3.1706,3.1743,3.176,3.1802,3.1824,3.1857,3.188,3.1867,3.194,3.1927,3.1953,3.1953,3.1966,3.1965,3.2028,3.1982,3.1982,3.1982,3.1981,0,3.1472,3.1509,3.1545,3.1573,3.1616,3.1639,3.1681,3.1704,3.1736,3.177,3.1783,3.1815,3.1844,3.188,3.1899,3.1948,3.1958,3.1971,3.1975,3.1969,3.1968,3.1983,3.1981,3.1983,3.1983,3.1983,3.1982,0,3.15,3.1525,3.1575,3.1619,3.1631,3.1661,3.1698,3.1727,3.1749,3.1792,3.1803,3.1838,3.1881,3.1908,3.1964,3.1977,3.2031,3.2034,3.2018,3.202,3.2045,3.2042,3.212,3.2132,3.2077,3.2078,3.2078,0,3.1526,3.1555,3.1602,3.1625,3.1647,3.1684,3.171,3.1735,3.1762,3.1808,3.1832,3.1876,3.1913,3.1984,3.2014,3.2058,3.2063,3.2087,3.2069,3.2063,3.2064,3.2061,3.2065,3.2089,3.209,3.209,3.2091,0,3.1569,3.1581,3.1617,3.1659,3.1689,3.1723,3.1757,3.1776,3.1807,3.1837,3.1882,3.1911,3.1969,3.2014,3.2061,3.2085,3.2094,3.2096,3.2105,3.2099,3.2088,3.2095,3.2026,3.2094,3.2094,3.2093,3.2093,3.2093,3.1597,3.1624,3.1662,3.1703,3.1731,3.1764,3.1793,3.1819,3.1857,3.1905,3.1918,3.1966,3.2006,3.207,3.2096,3.2135,3.2131,3.2143,3.2146,3.2149,3.215,3.2083,3.2143,3.2143,3.2143,3.2143,3.2143,0,3.1642,3.1667,3.1704,3.1752,3.1785,3.1791,3.183,3.1857,3.1898,3.1934,3.1971,3.2024,3.2069,3.2105,3.2152,3.2176,3.2182,3.2188,3.2186,3.2192,3.215,3.2138,3.2183,3.2183,3.2183,3.2183,3.2183,3.2183,3.1668,3.1715,3.1732,3.1795,3.1821,3.1867,3.1889,3.192,3.1949,3.2007,3.2044,3.2068,3.2105,3.2154,3.2197,3.2206,3.2223,3.2228,3.2239,3.2199,3.2194,3.219,3.2179,3.2232,3.2232,3.2278,3.2278,3.2279]}]]